Nenana, AK

8:51 AM AKDT on August 21, 2017 (GMT -0800)
Nenana Municipal

Weather History for PANN - January, 2014

Change the Weather History Date:

Tuesday, January 28, 2014

  Actual Average Record
Temperature  
Mean Temperature 32 °F -  
Max Temperature 46 °F 0 °F 53 °F (1995)
Min Temperature 19 °F -19 °F -53 °F (2012)
Degree Days  
Heating Degree Days 32    
Moisture  
Dew Point 20 °F    
Average Humidity 79    
Maximum Humidity 100    
Minimum Humidity 57    
Precipitation  
Precipitation 0.16 in - - ()
Sea Level Pressure  
Sea Level Pressure 29.95 in    
Wind  
Wind Speed 5 mph (North)    
Max Wind Speed 14 mph    
Max Gust Speed -    
Visibility 10 miles    
Events Rain    
Averages and records for this station are not official NWS values.
T = Trace of Precipitation, MM = Missing Value Source: NWS Daily Summary

Daily Weather History Graph

Daily Weather History Graph

Search for Another Location

Airport or City:

Trip Planner

Search our weather history database for the weather conditions in past years. The results will help you decide how hot, cold, wet, or windy it might be!

Date:

Astronomy

Jan. 28, 2014 Rise Set
Actual Time 9:51 AM AKST 4:28 PM AKST
Civil Twilight 8:51 AM AKST 5:28 PM AKST
Nautical Twilight 7:50 AM AKST 6:29 PM AKST
Astronomical Twilight 6:53 AM AKST 7:26 PM AKST
Moon 8:00 AM AKST (1/28) 2:13 PM AKST (1/28)
Length of Visible Light 8h 37m
Length of Day
6h 36m
Waning Crescent, 6% of the Moon is Illuminated
Jan 28
Waning Crescent
Jan 30
New
Feb 6
First Quarter
Feb 14
Full
Feb 22
Last Quarter

Hourly Weather History & Observations

Time (AKST) Temp. Windchill Dew Point Humidity Pressure Visibility Wind Dir Wind Speed Gust Speed Precip Events Conditions
12:53 AM 37.9 °F 30.5 °F 24.1 °F 57% 29.82 in 10.0 mi ENE 11.5 mph - N/A   Clear
1:53 AM 37.9 °F 29.6 °F 24.1 °F 57% 29.83 in 10.0 mi East 13.8 mph - N/A   Clear
2:53 AM 36.0 °F 29.0 °F 23.0 °F 59% 29.84 in 10.0 mi ENE 9.2 mph - N/A   Clear
3:53 AM 28.9 °F - 21.0 °F 72% 29.85 in 10.0 mi Calm Calm - N/A   Clear
4:53 AM 28.0 °F - 19.9 °F 72% 29.85 in 10.0 mi Calm Calm - N/A   Clear
5:53 AM 27.0 °F - 19.0 °F 72% 29.86 in 10.0 mi Calm Calm - N/A   Clear
6:53 AM 26.1 °F - 19.0 °F 75% 29.88 in 10.0 mi Calm Calm - N/A   Clear
7:53 AM 24.1 °F - 18.0 °F 77% 29.88 in 10.0 mi Calm Calm - N/A   Clear
8:53 AM 21.9 °F - 16.0 °F 78% 29.89 in 10.0 mi Calm Calm - N/A   Clear
9:53 AM 21.9 °F 15.7 °F 16.0 °F 78% 29.89 in 10.0 mi NNW 4.6 mph - N/A   Clear
10:53 AM 21.9 °F - 16.0 °F 78% 29.91 in 10.0 mi Calm Calm - N/A   Clear
11:53 AM 21.9 °F - 16.0 °F 78% 29.92 in 10.0 mi Calm Calm - N/A   Clear
12:53 PM 21.9 °F 17.2 °F 15.1 °F 75% 29.94 in 10.0 mi WSW 3.5 mph - N/A   Clear
1:53 PM 21.0 °F - 15.1 °F 78% 29.94 in 10.0 mi Calm Calm - N/A   Clear
2:53 PM 19.9 °F - 14.0 °F 78% 29.95 in 10.0 mi Calm Calm - N/A   Clear
3:53 PM 19.9 °F 14.9 °F 15.1 °F 81% 29.96 in 10.0 mi South 3.5 mph - N/A   Overcast
4:53 PM 19.9 °F - 15.1 °F 81% 29.98 in 10.0 mi Calm Calm - N/A   Mostly Cloudy
5:53 PM 19.0 °F - 15.1 °F 85% 29.99 in 10.0 mi Calm Calm - N/A   Clear
6:53 PM 19.0 °F - 14.0 °F 81% 29.99 in 10.0 mi Calm Calm - N/A   Clear
7:53 PM 19.9 °F - 15.1 °F 81% 30.00 in 10.0 mi Calm Calm - N/A   Clear
8:53 PM 21.0 °F 16.2 °F 15.1 °F 78% 30.00 in 10.0 mi NW 3.5 mph - N/A   Overcast
9:53 PM 21.9 °F 17.2 °F 16.0 °F 78% 30.01 in 10.0 mi NW 3.5 mph - N/A   Overcast
10:53 PM 21.0 °F - 16.0 °F 81% 30.02 in 10.0 mi Calm Calm - N/A   Clear
11:53 PM 19.0 °F - 14.0 °F 81% 30.04 in 10.0 mi Calm Calm - N/A   Clear